Regional Weather Roundup
Issued by NWS

Current Version | Previous Version | Text Only | Print | Product List | Glossary On
Versions: 1 2 3 4 5 6 7 8 9 10 11 12 13 14 15 16 17 18 19 20 21 22 23 24 25 26 27 28 29 30 31 32 33 34 35 36 37 38 39 40 41 42 43 44 45 46 47 48 49 50
000
ASCA44 KEWX 252220
RWRMX

LATIN AMERICA AND CARIBBEAN REGIONAL WEATHER ROUNDUP
NATIONAL WEATHER SERVICE AUSTIN/SAN ANTONIO TX
500 PM CDT TUE APR 25 2017

NOTE: "FAIR" INDICATED FEW OR NO CLOUDS BELOW 12,000 FEET WITH NO
SIGNIFICANT WEATHER AND/OR OBSTRUCTIONS TO VISIBILITY.

BAJA CALIFORNIA

CITY           SKY/WX    TMP DP  RH WIND       PRES   REMARKS
LORETO         MOSUNNY   91  75  59 W20       29.71F HX 102
LA PAZ         SUNNY     90  45  20 SW9       29.83F
MEXICALI       CLOUDY    82  30  15 W14       29.73F
S.J. DEL CABO  MOSUNNY   90  52  27 E6        29.81F
TIJUANA        CLOUDY    64  50  59 SW10      29.93F

NORTHWESTERN MEXICO

CITY           SKY/WX    TMP DP  RH WIND       PRES   REMARKS
CULIACAN       MOSUNNY   90  66  45 S12       29.80F HX  92
DURANGO        PTSUNNY   81  12   7 SW22      29.92F
GUAYMAS        MOSUNNY   82  55  39 W23       29.73F
HERMOSILLO     MOSUNNY   88  54  31 SW17      29.77F
CD. JUAREZ     MOSUNNY   84  37  18 W23G35    29.55F DUST
LOS MOCHIS     SUNNY     86  52  30 SW10      29.81F
OBREGON        PTSUNNY   88  48  25 S15       29.75F

NORTHEASTERN MEXICO

CITY           SKY/WX    TMP DP  RH WIND       PRES   REMARKS
CHIHUAHUA      PTSUNNY   86  27  11 SW22G33   29.76S
MATAMOROS      MOSUNNY   88  72  58 S15G26    29.54F HX  94
MONCLOVA       SUNNY    102  46  15 SW14      29.56S HX  98
MONTERREY      SUNNY    104  28   7 SE9       29.48F HX  97
NUEVO LAREDO   SUNNY     99  61  28 E10       29.46F HX  99
PIEDRAS NEGRAS   N/A    N/A N/A N/A MISG        N/A
REYNOSA        MOSUNNY   90  68  48 SE14G25   29.50F HX  93
SALTILLO       MOSUNNY   86  57  37 NW9       29.81F
TORREON        MOSUNNY   95   9   4 SW14      29.73F
CD. VICTORIA   PTSUNNY   95  59  30 SW7       29.53F HX  94

WESTERN MEXICO

CITY           SKY/WX    TMP DP  RH WIND       PRES   REMARKS
AGUASCALIENTES PTSUNNY   79  12   8 W18       30.06
COLIMA         PTSUNNY   81  64  57 SW17      29.90F
DEL BAJIO      PTSUNNY   86  27  11 W13       30.08F
GUADALAJARA    MOSUNNY   82  25  12 NW7       30.02F
MANZANILLO     PTSUNNY   82  73  74 SW12      29.81F
MAZATLAN       PTSUNNY   84  70  61 W7        29.82F
P. VALLARTA    CLOUDY    79  73  83 SW12      29.83F
URUAPAN        PTSUNNY   79  39  24 S12       30.05F
ZACATECAS      PTSUNNY   77  19  11 W17G29    30.08F

CENTRAL MEXICO

CITY           SKY/WX    TMP DP  RH WIND       PRES   REMARKS
CUERNAVACA     MOSUNNY   91  39  16 SW16      29.92F
MEXICO CITY    CLOUDY    79  32  18 W14       30.13F
MORELIA        PTSUNNY   82  36  18 S14G26    30.05F
POZA RICA      MOSUNNY   93  77  59 SE9       29.61  HX 107
PUEBLA         PTSUNNY   75  34  22 SW17G35   30.13F
QUERETARO      PTSUNNY   81  25  12 W9        30.45R
S. LUIS POTOSI CLOUDY    81  12   7 W17       30.01S
TAMPICO        PTSUNNY   84  73  70 E17       29.54F HX  91
TOLUCA         CLOUDY    70  25  18 SW15      30.26F

SOUTHERN MEXICO

CITY           SKY/WX    TMP DP  RH WIND       PRES   REMARKS
ACAPULCO       SUNNY     86  75  70 W7        29.80F HX  95
B. DE HUATULCO SUNNY     86  68  54 S23       29.83F
OAXACA         PTSUNNY   86  39  19 SE15      29.99F
P. ESCONDIDO     N/A     84  75  74 W12       29.92  HX  92
VERACRUZ       MOSUNNY   86  75  70 E12       29.60F FOG     HX  95
ZIHUATANEJO    PTSUNNY   86  73  66 SW12      29.82F HX  93

YUCATAN PENINSULA

CITY           SKY/WX    TMP DP  RH WIND       PRES   REMARKS
CAMPECHE       SUNNY     91  72  52 N12G23    29.65F HX  98
CANCUN         SUNNY     82  72  69 SE17      29.86R
CHETUMAL       MOSUNNY   86  72  62 SE17      29.76F HX  92
CD. DEL CARMEN PTSUNNY   88  77  70 N12       29.65F HX 100
COZUMEL        MOSUNNY   84  70  61 SE13      29.79F
MERIDA         SUNNY    100  57  23 SE5       29.68F HX  99
MINATITLAN     SUNNY     97  59  28 S25       29.60F HX  96
TAPACHULA      MOSUNNY   91  72  52 SW12      29.77F HX  98
TUX. GUTIERREZ SUNNY     95  57  28 S20       29.75F HX  94
VILLAHERMOSA   SUNNY     99  64  32 S5        29.66F HX 101

CENTRAL AMERICA

CITY           SKY/WX    TMP DP  RH WIND       PRES   REMARKS
BELIZE CITY    MOSUNNY   88  75  66 E8        29.75F HX  97
MANAGUA        PTCLDY    97  68  38 SE14      29.71S HX 101

CARIBBEAN

CITY           SKY/WX    TMP DP  RH WIND       PRES   REMARKS
ARUBA          MOSUNNY   84  77  79 E20       29.74R HX  94
CURACAO          N/A     82  75  78 E14       29.77
KINGSTON       MOSUNNY   84  77  79 S10       29.83S HX  94
SAN JUAN       MOCLDY    88  75  66 S10       29.89F HX  97
SANTO DOMINGO  MOSUNNY   84  77  79 CALM      29.86S HX  94
ST. CROIX      PTCLDY    82  75  78 E12       29.93
ST. KITTS      PTCLDY    81  72  74 E10       29.94R
ST. MAARTEN    MOCLDY    81  72  74 E12       29.92S
ST. THOMAS     CLOUDY    81  75  83 SE12      29.92

$$





USA.gov is the U.S. government's official web portal to all federal, state and local government web resources and services.